DIAMANT R/B

Satellite information

Favourite Embed

Satellite Type and Status

ROCKET BODYIN ORBIT

Key statistics

Satellite DIAMANT R/B at a glance.

Uptime

21437

Days in orbit

Revolutions

≈ 14.3

Per day

Orbit

LEO

Low Earth Orbit

Inclination

39.9

Latest

Satellite identification and parameters

Extended collection of information and parameters for DIAMANT R/B.

Object identification

Identified? True

Debris? False

Object name: DIAMANT R/B

International designator: 1967-011B

Object number (NORAD): 2671

Object ID (CCSDS): 2671

Country: FRANCE (FR)

Current information (Y/N): Y

RCS size: LARGE

Orbital parameters

Period: 100.458 minutes

Inclination: 39.9468 deg

SMA: 7158.387 km

Apoapsis: 1020.653 km

Periapsis: 539.851 km

RAAN: 308.0281 deg

Eccentricy: 0.03358314

Argument of periapsis: 223.1972 deg

Mean anomaly: 134.1998 deg

Mean motion: 14.33441591 rev/day

Mean motion (dot): 0.00002732 rev/day2

B* drag term: 0.00053906739 1/REarth

Two-line elements (TLE)

Creation date: Oct. 18, 2025, 2:17 a.m.

Reference frame: TEME

Reference center: EARTH

Epoch: Oct. 17, 2025, 6:06 p.m. UTC

TLE line 0: 0 DIAMANT R/B

TLE line 1: 1 02671U 67011B 25290.75462271 .00002732 00000-0 53907-3 0 9994

TLE line 2: 2 02671 39.9468 308.0281 0335831 223.1972 134.1998 14.33441591 20718

Live tracking on map

Real-time ground track for satellite DIAMANT R/B.

In-orbit conjunctions

A list of the most updated potential collisions computed for object DIAMANT R/B.

Target Orbit TCA Probability of collision Miss distance Type
FENGYUN 1C DEB SSO 2025-03-02 03:02:40 0.00046396 257.0 (m) DEBRIS
PSLV DEB SSO 2024-09-15 15:51:52 0.00044118 172.0 (m) DEBRIS
SL-8 DEB LEO 2024-07-06 09:15:37 0.0001757712 591.0 (m) DEBRIS

Associated space launch

French geodetic study satellite.

DIAMANT R/B was lifted into orbit during the mission ‘Diamant A | Diademe D-1C’, on board a Diamant A space rocket.

The launch took place on Feb. 8, 1967, 9:39 a.m. from Brigitte.

For more information about the launch, click the button.

Launch to space Diamant A | Diademe D-1C
Diamant A | Diademe D-1C

Agency: N/A

Status: Launch Successful

Launch date: Feb. 8, 1967, 9:39 a.m. UTC

Rocket: Diamant A

Launch pad: Brigitte

Location: Interarmy Special Vehicles Test Centre, French Algeria

...

Latest news about this satellite

There are no fresh news available about this satellite. Check back as we update our databases every day.


Newsletter sign-up

Weekly statistics, charts and insights to help you stay on top of the space industry.